Location: Grossmotten
(48.5500°N, 15.3833°E)
Time: 21:58:23
(UTC+00:00)

Cosmos 2360 Rocket - Pass Details

Date: 15 November 2019
Orbit: 832 x 847 km, 71.0° (Epoch: 13 December)

Event Time Altitude Azimuth Distance (km) Brightness Sun altitude
Exits shadow 03:37:37 - 346° (NNW) 2,618 4.6 -24.4°
Reaches altitude 10° 03:38:04 10° 349° (NNW) 2,480 4.5 -24.3°
Maximum altitude 03:42:48 26° 45° (NE) 1,614 4.1 -23.5°
Drops below altitude 10° 03:47:30 10° 101° (E) 2,471 5.7 -22.8°
Sets 03:50:21 0° 114° (ESE) 3,402 6.5 -22.3°
